User: anonymous   Login
Location: Borovka
(49.7741°N, 14.5280°E)
Time: 06:39:04
(UTC+00:00)
Language:

ZACube-1 - Orbit

View from above orbital plane
View from above orbital plane
View from above satellite
View from above satellite

Ground track
Ground track

The orbit is defined by the following mean orbital elements,

1 39417U          26069.93058083 +.00000000 +00000-0 +41935-3 0 00001
2 39417  97.8165  31.7605 0042653 215.8183 144.0179 15.00341173    03
Epoch (UTC): 10 March 2026 22:20:02
Eccentricity: 0.0042653
inclination: 97.8165°
perigee height: 536 km
apogee height: 595 km
right ascension of ascending node: 31.7605°
argument of perigee: 215.8183°
revolutions per day: 15.00341173
mean anomaly at epoch: 144.0179°

The dashed part of the orbit path shows where the satellite is in the earth's shadow,  

DLR